Probability
0 0 0 0 0 0 0 0 0 0 0 0 0 0 0 0 0 0 0 0 0 0 0 0 0 0 0 0 0 0 0 0 0 0 0 0 0 0
0 0 0 0 0 0 0 0 0 0 0 0 0 0 0 0 0 0 0 0 0 0 0 0 0 0 0 0 0 0 0 0 0 0 0 0 0 0
0 0 0 0 0 0 0 0 0 0 0 0 0 0 0 0 0 0 0 0 0 0 0 0 0 0 0 0 0 0 0 0 0 0 0 0 0 0
0 0 0 0 0 0 0 0 0 0 0 0 0 0 0 0 0 0 0 0 0 0 0 0 0 0 0 0 0 0 0 0 0 0 0 0 0 0
0 0 0 0 0 0 0 0 0 0 0 0 0 0 0 0 0 0 0 0 0 0 0 0 0 0 0 0 0 0 0 0 0 0 0 0 0 0
0 0 0 0 0 0 0 0 0 0 0 0 0 0 0 0 0 0 0 0 0 0 0 0 0 0 0 0 0 0 0 0 0 0 0 0 0 0
0 0 0 0 0 0 0 0 0 0 0 0 0 0 0 0 0 0 0 0 0 0 0 0 0 0 0 0 0 0 0 0 0 0 0 0 0 0
0 0 0 0 0 0 0 0 0 0 0 0 0 0 0 0 0 0 0 0 0 0 0 0 0 0 0 0 0 0 0 0 0 0 0 0 0 0
0 0 0 0 0 0 0 0 0 0 0 0 0 0 0 0 0 0 0 0 0 0 0 0 0 0 0 0 0 0 0 0 0 0 0 0 0 0
0 0 0 0 0 0 0 0 0 0 0 0 0 0 0 0 0 0 0 0 0 0 0 0 0 0 0 0 0 0 0 0 0 0 0 0 0 0
0 0 0 0 0 0 0 0 0 0 0 0 0 0 0 0 0 0 0 0 0 0 0 0 0 0 0 0 0 0 0 0 0 0 0 0 0 0
0 0 0 0 0 0 0 0 0 0 0 0 0 0 0 0 0 0 0 0 0 0 0 0 0 0 0 0 0 0 0 0 0 0 0 0 0 0
0 0 0 0 0 0 0 0 0 0 0 0 0 0 0 0 0 0 0 0 0 0 0 0 0 0 0 0 0 0 0 0 0 0 0 0 0 0
0 0 0 0 0 0 0 0 0 0 0 0 0 0 0 0 0 0 0 0 0 0 0 0 0 0 0 0 0 0 0 0 0 0 0 0 0 0
0 0 0 0 0 0 0 0 0 0 0 0 0 0 0 0 0 0 0 0 0 0 0 0 0 0 0 0 0 0 0 0 0 0 0 0 0 0
0 0 0 0 0 0 0 0 0 0 0 0 0 0 0 0 0 0 0 0 0 0 0 0 0 0 0 0 0 0 0 0 0 0 0 0 0 0
0 0 0 0 0 0 0 0 0 0 0 0 0 0 0 0 0 0 0 0 0 0 0 0 0 0 0 0 0 0 0 0 0 0 0 0 0 0
0 0 0 0 0 0 0 0 0 0 0 0 0 0 0 0 0 0 0 0 0 0 0 0 0 0 0 0 0 0 0 0 0 0 0 0 0 0
0 0 0 0 0 0 0 0 0 0 0 0 0 0 0 0 0 0 0 0 0 0 0 0 0 0 0 0 0 0 0 0 0 0 0 0 0 0
0 0 0 0 0 0 0 0 0 0 0 0 0 0 0 0 0 0 0 0 0 0 0 0 0 0 0 0 0 0 0 0 0 0 0 0 0 0
0 0 0 0 0 0 0 0 0 0 0 0 0 0 0 0 0 0 0 0 0 0 0 0 0 0 0 0 0 0 0 0 0 0 0 0 0 0
0 0 0 0 0 0 0 0 0 0 0 0 0 0 0 0 0 0 0 0 0 0 0 0 0 0 0 0 0 0 0 0 0 0 0 0 0 0
0 0 0 0 0 0 0 0 0 0 0 0 0 0 0 0 0 0 0 0 0 0 0 0 0 0 0 0 0 0 0 0 0 0 0 0 0 0
Height
5630 5632 5633 5635 5636 5637 5638 5640 5642 5644 5646 5647 5647 5648 5648 5649 5649 5650 5650 5651 5651 5652 5652 5652 5652 5653 5654 5654 5654 5655 5655 5656 5657 5657 5658 5659 5661 5662
5618 5619 5620 5621 5622 5623 5624 5625 5626 5628 5630 5632 5632 5632 5632 5633 5633 5634 5634 5635 5635 5635 5635 5635 5636 5636 5637 5637 5638 5638 5639 5639 5639 5640 5641 5642 5644 5645
5605 5606 5607 5608 5608 5609 5610 5610 5612 5613 5614 5616 5616 5617 5616 5617 5617 5617 5618 5618 5619 5618 5618 5618 5619 5619 5620 5620 5621 5621 5621 5622 5622 5623 5624 5625 5626 5628
5592 5593 5593 5594 5594 5595 5595 5596 5596 5597 5598 5600 5600 5600 5600 5600 5600 5601 5601 5601 5602 5602 5602 5602 5602 5602 5603 5603 5604 5604 5604 5605 5605 5606 5607 5609 5609 5609
5579 5579 5580 5580 5580 5580 5580 5581 5581 5581 5582 5583 5583 5584 5584 5583 5583 5584 5584 5584 5584 5584 5585 5585 5585 5586 5586 5587 5587 5587 5588 5588 5589 5589 5590 5591 5592 5592
5565 5565 5566 5566 5566 5566 5565 5565 5565 5566 5566 5566 5567 5567 5567 5566 5566 5567 5567 5567 5567 5567 5568 5568 5569 5569 5569 5570 5570 5570 5570 5570 5571 5571 5572 5573 5574 5575
5551 5551 5551 5551 5551 5551 5550 5550 5550 5550 5549 5549 5550 5550 5550 5549 5549 5549 5550 5551 5551 5550 5551 5552 5552 5553 5553 5553 5553 5553 5553 5553 5553 5554 5554 5555 5556 5557
5537 5537 5537 5537 5536 5536 5535 5535 5534 5533 5533 5533 5533 5533 5533 5532 5532 5532 5533 5534 5536 5536 5534 5535 5535 5536 5536 5536 5536 5536 5536 5536 5536 5536 5537 5537 5538 5538
5523 5523 5523 5522 5521 5521 5520 5519 5518 5517 5517 5517 5516 5516 5516 5516 5516 5516 5516 5516 5518 5518 5517 5519 5518 5519 5519 5519 5519 5519 5518 5518 5518 5518 5518 5519 5519 5520
5510 5509 5508 5508 5506 5506 5505 5504 5503 5503 5502 5501 5501 5501 5500 5499 5500 5500 5500 5500 5501 5500 5499 5501 5502 5502 5502 5502 5501 5501 5500 5500 5500 5500 5500 5500 5501 5502
5495 5495 5494 5493 5492 5490 5490 5489 5489 5488 5487 5486 5486 5485 5485 5484 5483 5484 5484 5484 5485 5485 5483 5484 5485 5486 5486 5485 5484 5483 5482 5482 5482 5482 5482 5482 5483 5485
5481 5480 5479 5478 5477 5476 5475 5474 5474 5474 5473 5472 5471 5470 5470 5469 5469 5468 5468 5468 5468 5469 5468 5467 5467 5467 5470 5470 5468 5466 5465 5465 5464 5464 5465 5465 5466 5467
5467 5466 5465 5464 5463 5462 5461 5460 5460 5459 5459 5458 5458 5457 5456 5455 5455 5454 5453 5452 5453 5453 5452 5451 5451 5450 5450 5453 5453 5450 5449 5448 5448 5448 5448 5449 5449 5450
5453 5453 5451 5450 5449 5448 5447 5446 5445 5445 5444 5444 5444 5443 5443 5442 5441 5440 5439 5438 5437 5437 5436 5435 5435 5434 5434 5435 5436 5435 5433 5432 5431 5432 5432 5432 5433 5434
5439 5439 5438 5437 5436 5434 5434 5432 5431 5431 5431 5430 5430 5430 5429 5428 5427 5426 5425 5424 5423 5422 5421 5420 5419 5419 5418 5418 5419 5419 5418 5417 5416 5416 5416 5416 5418 5419
5426 5425 5424 5423 5422 5421 5420 5419 5418 5418 5417 5417 5417 5416 5415 5414 5413 5412 5411 5410 5409 5408 5406 5405 5404 5403 5403 5402 5402 5402 5401 5401 5401 5401 5401 5402 5403 5404
5413 5412 5411 5410 5409 5408 5407 5406 5406 5405 5405 5404 5404 5403 5402 5401 5399 5398 5397 5396 5395 5395 5394 5392 5390 5389 5388 5388 5387 5387 5386 5386 5385 5386 5386 5388 5389 5390
5401 5400 5399 5398 5397 5396 5395 5394 5394 5393 5393 5392 5391 5390 5389 5388 5387 5385 5384 5383 5382 5381 5380 5379 5378 5377 5376 5374 5372 5371 5371 5371 5371 5371 5372 5373 5376 5377
5389 5388 5387 5386 5385 5384 5383 5383 5382 5382 5381 5380 5379 5378 5377 5375 5374 5373 5371 5370 5369 5368 5367 5366 5364 5363 5363 5363 5361 5358 5357 5357 5357 5358 5359 5360 5363 5364
5377 5376 5375 5374 5373 5372 5372 5371 5370 5370 5369 5368 5367 5366 5365 5364 5363 5361 5360 5358 5357 5356 5355 5353 5352 5350 5349 5349 5349 5348 5345 5344 5345 5346 5347 5348 5350 5352
5366 5364 5363 5362 5361 5361 5360 5359 5359 5358 5358 5357 5356 5355 5354 5352 5351 5350 5348 5347 5345 5344 5343 5342 5340 5338 5337 5337 5338 5337 5335 5333 5333 5334 5335 5337 5339 5341
5355 5353 5352 5351 5350 5349 5349 5348 5347 5347 5346 5345 5344 5343 5342 5341 5340 5338 5337 5335 5334 5333 5332 5331 5329 5328 5327 5326 5326 5326 5326 5325 5324 5323 5324 5325 5326 5329
5344 5343 5342 5341 5340 5339 5338 5337 5336 5336 5335 5334 5333 5332 5331 5330 5328 5327 5326 5324 5323 5322 5321 5320 5319 5318 5317 5316 5316 5316 5316 5315 5315 5315 5315 5315 5316 5318
Wind_Speed
47 47 48 49 50 50 51 53 53 53 53 53 53 54 54 54 53 54 54 55 55 55 55 55 54 54 54 54 54 54 54 55 55 55 54 54 54 54
47 47 47 48 49 50 51 52 53 54 53 53 54 54 55 55 56 56 56 56 56 56 55 56 55 55 55 55 55 55 55 56 56 56 56 56 56 56
48 48 48 47 48 50 51 52 53 53 53 54 54 54 54 55 56 57 58 58 57 57 56 56 55 56 56 56 56 56 56 56 56 55 56 56 56 57
48 50 50 49 49 50 51 53 54 54 55 55 55 55 55 56 56 57 58 58 58 57 57 57 56 56 56 56 56 56 56 55 55 56 57 57 56 56
49 50 50 50 50 51 52 53 54 55 56 56 56 56 56 56 57 57 58 58 57 57 57 57 56 56 56 55 56 56 56 56 56 56 55 55 55 55
50 50 51 51 52 52 52 53 54 54 55 56 56 56 56 57 57 57 56 57 57 57 57 57 56 56 56 56 56 56 56 56 56 56 56 55 55 56
50 51 52 52 52 52 52 52 53 54 54 55 55 56 56 56 56 56 56 56 56 56 56 56 56 56 56 56 55 55 56 57 57 57 56 56 56 57
49 50 51 52 53 53 53 53 53 53 53 54 54 54 54 55 55 55 56 56 56 56 57 57 57 57 56 56 56 56 57 57 57 58 58 57 56 57
49 50 51 52 53 54 54 54 53 52 52 53 53 53 53 53 54 55 56 56 55 56 57 57 57 57 57 56 56 56 57 58 58 58 58 58 57 56
49 50 51 52 53 53 53 53 52 51 51 51 52 51 51 51 52 53 53 54 54 54 56 55 55 55 55 55 55 55 56 56 57 57 57 56 56 55
50 50 51 51 50 50 50 50 50 49 49 50 49 49 49 49 49 50 50 51 52 52 54 54 54 55 54 54 54 55 54 55 55 55 55 54 54 54
48 49 49 48 48 48 48 47 47 46 46 47 47 47 47 47 47 48 49 49 49 50 51 52 52 53 52 52 53 54 54 54 54 54 53 52 52 52
46 46 47 46 46 46 46 46 45 46 46 46 46 46 46 47 47 48 48 49 48 48 49 50 50 51 51 50 51 52 52 53 53 53 52 51 51 51
45 45 44 44 45 45 45 45 45 45 45 45 45 45 45 46 47 47 48 48 48 47 48 49 49 49 50 49 49 49 50 51 51 50 50 50 50 49
43 43 43 43 44 44 43 43 43 43 43 44 44 44 44 45 46 46 46 46 47 47 47 47 48 48 48 48 47 47 47 47 48 48 48 48 48 48
41 42 42 43 43 43 42 41 41 41 42 42 43 44 44 44 45 45 45 46 46 46 46 47 47 47 47 46 46 46 46 46 46 46 46 46 46 46
40 40 40 41 41 41 41 40 40 40 40 40 41 42 43 44 44 44 44 44 45 44 44 45 46 46 46 46 46 45 45 45 45 46 45 43 43 44
39 39 39 39 40 40 40 39 39 39 39 39 40 41 41 42 42 42 42 42 42 42 42 43 43 43 43 43 44 43 43 43 43 43 42 41 41 41
38 39 39 40 40 39 39 38 38 38 39 39 39 39 40 39 40 40 41 40 40 40 41 42 42 41 40 39 39 40 40 39 39 39 38 38 38 39
38 38 39 39 39 38 37 37 38 38 38 38 39 39 39 38 39 39 39 39 39 39 40 40 40 39 38 37 36 35 37 38 37 36 36 36 36 36
36 36 37 36 36 36 37 37 38 38 38 38 38 38 38 38 38 38 38 38 38 38 38 38 37 36 36 35 34 33 34 35 36 35 34 34 34 34
35 35 35 35 35 36 36 37 37 37 37 37 37 37 37 37 37 38 38 38 37 36 35 34 34 34 34 34 33 32 31 32 33 34 34 34 33 33
33 33 33 33 34 34 35 35 35 35 35 35 35 35 36 36 37 36 36 35 34 33 33 32 32 32 32 32 31 31 30 31 31 31 31 32 32 32
Wind_Direction
264 263 263 263 264 265 266 267 267 266 267 268 269 269 270 269 269 270 270 270 271 270 270 269 269 268 269 269 269 267 267 267 267 267 265 264 263 262
264 264 264 265 266 267 267 267 268 268 268 268 269 270 270 270 271 271 271 271 271 271 271 270 269 269 269 269 268 268 268 267 267 266 265 265 264 262
266 265 265 266 268 268 268 268 269 269 269 270 271 270 270 270 270 271 272 272 271 271 271 270 269 269 269 269 268 268 267 267 267 266 265 265 265 263
266 267 266 267 269 270 270 269 269 270 270 271 271 271 271 270 271 271 271 271 271 270 270 269 269 269 269 269 268 268 268 267 267 267 266 266 265 264
267 268 268 268 270 271 271 270 270 271 272 272 271 271 271 271 271 270 270 270 270 270 269 270 269 268 268 268 269 269 269 268 268 268 267 266 266 265
267 268 269 269 270 272 272 271 271 271 272 272 272 272 271 271 270 270 269 269 270 270 269 269 268 267 268 269 270 270 269 269 269 269 267 267 266 265
268 269 270 271 271 272 273 272 272 272 273 273 273 273 272 271 270 269 269 269 269 269 268 268 268 268 268 269 270 270 269 269 269 269 268 267 267 265
269 270 270 271 272 272 273 273 273 274 274 274 274 273 273 272 271 270 269 269 269 269 269 268 268 268 269 270 270 270 270 269 269 269 268 268 267 266
271 271 272 272 273 273 274 274 274 275 275 274 274 273 273 272 272 271 270 270 270 270 269 269 268 269 270 271 270 270 270 269 269 269 269 268 267 266
272 273 274 274 275 275 275 274 273 274 274 274 273 273 273 273 273 272 272 271 270 271 270 270 269 270 271 271 271 271 270 270 270 270 269 268 267 266
273 274 275 275 275 275 275 274 274 274 274 274 274 274 273 273 273 273 272 272 272 272 271 272 271 271 272 272 271 271 270 270 270 270 269 268 266 265
274 274 275 275 275 275 275 275 274 273 273 274 274 273 272 273 273 274 274 273 272 272 272 273 272 272 271 270 271 271 271 271 270 270 269 268 266 265
274 274 274 274 275 275 275 274 274 273 274 274 274 273 272 273 274 274 275 275 274 274 274 274 273 273 273 272 272 272 271 271 270 269 268 267 266 264
275 274 274 274 276 276 276 275 274 274 274 274 273 273 273 273 274 274 275 276 276 276 275 275 275 275 275 274 273 272 272 272 271 269 268 267 265 263
274 274 274 275 276 277 276 275 275 275 274 274 274 274 274 274 274 274 275 275 276 277 276 275 275 275 276 276 276 274 272 271 270 269 268 266 264 261
275 274 275 276 277 277 276 275 275 275 275 274 274 275 275 276 276 275 275 275 275 276 276 275 276 276 276 277 277 276 274 272 270 269 268 266 264 262
275 275 276 277 277 277 275 274 275 275 275 275 275 276 277 277 277 277 277 276 276 275 275 275 275 276 277 277 277 276 275 273 271 269 267 265 263 262
277 277 277 277 277 275 275 275 274 274 275 275 276 277 278 278 278 278 279 278 277 276 276 276 275 275 277 278 278 276 275 272 270 268 266 264 261 260
278 277 277 277 276 275 274 274 274 274 275 276 277 277 278 279 279 280 280 279 278 277 277 278 277 278 278 278 277 276 275 273 269 267 266 263 260 258
279 279 278 277 275 274 273 274 274 275 276 277 277 277 277 278 279 281 281 280 279 279 279 279 279 279 278 278 278 276 275 273 270 267 265 262 259 258
280 280 279 277 275 274 274 275 275 275 276 277 277 278 278 279 280 281 281 281 281 280 279 279 279 279 279 279 278 276 273 272 271 269 266 262 258 256
281 280 279 277 276 276 276 276 276 276 276 278 278 278 279 280 281 282 282 282 281 280 279 279 280 280 279 279 278 276 272 271 270 269 267 264 260 257
281 280 279 278 278 277 277 276 276 277 278 279 279 279 280 281 281 281 281 280 280 279 279 280 280 280 280 280 278 275 273 271 269 266 264 263 261 261